TimeEDT,TemperatureF,Dew PointF,Humidity,Sea Level PressureIn,VisibilityMPH,Wind Direction,Wind SpeedMPH,Gust SpeedMPH,PrecipitationIn,Events,Conditions,WindDirDegrees,DateUTC
12:33 AM,73.4,71.6,94,29.81,4.0,SW,8.1,-,N/A,,Overcast,220,2013-08-10 04:33:00
12:52 AM,73.0,71.1,93,29.81,4.0,SW,8.1,-,N/A,,Overcast,220,2013-08-10 04:52:00
1:52 AM,73.0,71.1,93,29.81,5.0,SW,4.6,-,N/A,,Overcast,230,2013-08-10 05:52:00
2:52 AM,73.0,71.1,93,29.82,5.0,SW,5.8,-,N/A,,Overcast,230,2013-08-10 06:52:00
3:24 AM,73.4,69.8,88,29.82,6.0,WSW,5.8,-,N/A,,Scattered Clouds,240,2013-08-10 07:24:00
3:52 AM,73.0,70.0,90,29.82,6.0,West,4.6,-,N/A,,Clear,260,2013-08-10 07:52:00
4:52 AM,72.0,69.1,91,29.83,10.0,West,6.9,-,N/A,,Clear,260,2013-08-10 08:52:00
5:52 AM,71.1,66.9,87,29.86,10.0,West,9.2,-,N/A,,Clear,280,2013-08-10 09:52:00
6:52 AM,71.1,64.9,81,29.87,10.0,West,9.2,-,N/A,,Clear,270,2013-08-10 10:52:00
7:52 AM,71.1,64.0,78,29.89,10.0,WNW,9.2,-,N/A,,Clear,300,2013-08-10 11:52:00
8:52 AM,73.9,64.0,71,29.90,10.0,WNW,10.4,-,N/A,,Clear,290,2013-08-10 12:52:00
9:52 AM,77.0,60.1,56,29.90,10.0,WNW,13.8,18.4,N/A,,Clear,300,2013-08-10 13:52:00
10:52 AM,79.0,57.9,48,29.90,10.0,NW,10.4,-,N/A,,Clear,310,2013-08-10 14:52:00
11:52 AM,81.0,57.9,45,29.90,10.0,WNW,8.1,-,N/A,,Clear,290,2013-08-10 15:52:00
12:52 PM,82.0,60.1,47,29.90,10.0,West,10.4,-,N/A,,Clear,280,2013-08-10 16:52:00
1:52 PM,84.0,60.1,44,29.90,10.0,West,16.1,20.7,N/A,,Clear,260,2013-08-10 17:52:00
2:52 PM,82.0,57.0,42,29.89,10.0,WNW,12.7,-,N/A,,Clear,290,2013-08-10 18:52:00
3:52 PM,84.0,60.1,44,29.90,10.0,West,9.2,-,N/A,,Partly Cloudy,270,2013-08-10 19:52:00
4:52 PM,82.0,57.9,44,29.91,10.0,West,10.4,18.4,N/A,,Scattered Clouds,260,2013-08-10 20:52:00
5:52 PM,81.0,55.9,42,29.91,10.0,West,11.5,17.3,N/A,,Clear,270,2013-08-10 21:52:00
6:52 PM,79.0,54.0,42,29.93,10.0,West,10.4,-,N/A,,Clear,270,2013-08-10 22:52:00
7:52 PM,73.9,55.0,52,29.94,10.0,West,9.2,-,N/A,,Clear,280,2013-08-10 23:52:00
8:52 PM,72.0,54.0,53,29.97,10.0,Calm,Calm,-,N/A,,Clear,0,2013-08-11 00:52:00
9:52 PM,66.9,55.9,68,29.99,10.0,West,3.5,-,N/A,,Clear,270,2013-08-11 01:52:00
10:52 PM,66.0,54.0,65,29.99,10.0,WNW,5.8,-,N/A,,Clear,300,2013-08-11 02:52:00
11:52 PM,64.9,53.1,65,30.01,10.0,WNW,4.6,-,N/A,,Clear,290,2013-08-11 03:52:00